Regional Weather Roundup
Issued by NWS

Home | Current Version | Previous Version | Graphics & Text | Print | Product List | Glossary On
Versions: 1 2 3 4 5 6 7 8 9 10 11 12 13 14 15 16 17 18 19 20 21 22 23 24 25 26 27 28 29 30 31 32 33 34 35 36 37 38 39 40 41 42 43 44 45 46 47 48 49 50
000
ASUS43 KLOT 291900
RWRIL

ILLINOIS REGIONAL WEATHER ROUNDUP
NATIONAL WEATHER SERVICE CHICAGO/ROMEOVILLE IL
200 PM CDT SAT AUG 29 2015

NOTE: "FAIR" INDICATES FEW OR NO CLOUDS BELOW 12,000 FEET WITH NO
SIGNIFICANT WEATHER AND/OR OBSTRUCTIONS TO VISIBILITY.

* THESE STATIONS ARE NOT UNDER NWS QUALITY CONTROL. THEY ALSO MAY NOT
  REPORT WEATHER SUCH AS PRECIPITATION OR FOG.

ILZ001-002-007-009-015-016-024-292000-
NORTHWEST ILLINOIS

CITY           SKY/WX    TMP DP  RH WIND       PRES   REMARKS
MOLINE         CLOUDY    74  67  78 CALM      29.99F
STERLING*      CLOUDY    72  66  83 CALM      29.99R
$$

ILZ003-004-008-010-011-017-018-292000-
NORTH CENTRAL ILLINOIS

CITY           SKY/WX    TMP DP  RH WIND       PRES   REMARKS
ROCKFORD       CLOUDY    70  64  81 NW3       30.03R
$$

ILZ005-006-012>014-019>023-292000-
NORTHEAST ILLINOIS

CITY           SKY/WX    TMP DP  RH WIND       PRES   REMARKS
CHICAGO-OHARE  CLOUDY    69  66  90 SW6       30.01F FOG
CHICAGO-MIDWAY CLOUDY    75  64  68 VRB6      30.00F
AURORA         CLOUDY    70  67  90 S6        30.02S FOG
WAUKEGAN       CLOUDY    66  64  93 E3        30.02S
DUPAGE AIRPORT CLOUDY    69  65  86 S8        30.01F
WHEELING       CLOUDY    69  65  86 S9        30.02F
NORTHERLY ISL    N/A     72  63  73 S8          N/A
$$

LMZ740>746-292000-
SOUTHERN LAKE MICHIGAN

STATION/POSITION SKY/WX   TEMP    WIND        PRES    VSBY  WAVE
                          AIR SEA DIR/SP/G                  HT/PER
                          (F)     (DEG/KT/KT) (MB)    (MI)  (FT/S)
SOUTHERN BUOY              67 68  120/ 14/ 14 1016.6F
WILMETTE HARBOR            60 56  310/  4/  6   N/A           2/ 4
HARRISON CRIB              67     160/ 10/ 11   N/A
BURNHAM HARBOR             71     210/ 10/ 10   N/A
BURNS HARBOR               72     180/  7/ 14 1017.6F
MICHIGAN CITY              69     130/ 10/ 11   N/A
MICHIGAN CITY 6N           69 71  170/ 10/ 12   N/A           1
ST. JOSEPH                 68 70  220/ 14/ 16   N/A           2/ 3
$$

ILZ025>027-034>036-040-047-049-050-058-095>099-292000-
WEST-CENTRAL ILLINOIS

CITY           SKY/WX    TMP DP  RH WIND       PRES   REMARKS
QUINCY         CLOUDY    80  67  64 W6        29.99F HX  82
$$

ILZ028>032-037-038-041>044-048-051>054-059>061-292000-
CENTRAL ILLINOIS

CITY           SKY/WX    TMP DP  RH WIND       PRES   REMARKS
DECATUR        CLOUDY    82  66  58 SW13      30.03F HX  84
PEORIA         PTSUNNY   82  65  56 S3        30.00F HX  84
SPRINGFIELD    CLOUDY    77  67  71 S7        30.02S
TAYLORVILLE    NOT AVBL
$$

ILZ033-039-045-046-055>057-062-063-292000-
EAST-CENTRAL ILLINOIS

CITY           SKY/WX    TMP DP  RH WIND       PRES   REMARKS
CHAMPAIGN      CLOUDY    79  68  69 SW5       30.04F HX  81
MATTOON        CLOUDY    82  67  60 S7        30.03F HX  84
$$

ILZ079-100>102-292000-
SOUTHWEST ILLINOIS

CITY           SKY/WX    TMP DP  RH WIND       PRES   REMARKS
BELLEVILLE     CLOUDY    79  69  73 SE3       30.02F HX  81
CAHOKIA*       CLOUDY    80  66  62 S7        30.03S HX  82
$$

ILZ064>066-069>071-074>076-080>082-084>086-088>090-092>094-292000-
SOUTH-CENTRAL ILLINOIS

CITY           SKY/WX    TMP DP  RH WIND       PRES   REMARKS
CARBONDALE     LGT RAIN  77  68  73 SW6       30.05F
MARION         CLOUDY    81  70  69 SW9       30.07S HX  84
MT. VERNON     CLOUDY    79  66  65 S8        30.06F HX  81
$$

ILZ067-068-072-073-078-083-087-091-292000-
SOUTHEAST ILLINOIS

CITY           SKY/WX    TMP DP  RH WIND       PRES   REMARKS
LAWRENCEVILLE  CLOUDY    81  68  64 S10       30.07S HX  84
$$

ABBREVIATIONS USED IN REMARKS
   TC - TEMPERATURE IN CELSIUS
  WCI - WIND CHILL INDEX
   HX - HEAT INDEX
  VSB - VISIBILITY
$$




USA.gov is the U.S. government's official web portal to all federal, state and local government web resources and services.